Regional Weather Roundup
Issued by NWS New Orleans/Baton Rouge, LA

Home | Current Version | Previous Version | Text Only | Print | Product List | Glossary On
Versions: 1 2 3 4 5 6 7 8 9 10 11 12 13 14 15 16 17 18 19 20 21 22 23 24 25 26 27 28 29 30 31 32 33 34 35 36 37 38 39 40 41 42 43 44 45 46 47 48 49 50
000
ASUS44 KLIX 190207
RWRLIX
NEW ORLEANS REGIONAL WEATHER ROUNDUP
NATIONAL WEATHER SERVICE NEW ORLEANS LA
900 PM CDT SAT APR 18 2015

NOTE: "FAIR" INDICATES FEW OR NO CLOUDS BELOW 12,000 FEET WITH NO
      SIGNIFICANT WEATHER AND/OR OBSTRUCTIONS TO VISIBILITY.
      SKY/WX - SKY CONDITION AND SIGNIFICANT WEATHER.
      TMP - AIR TEMPERATURE.     DP    - DEWPOINT TEMPERATURE.
      RH  - RELATIVE HUMIDITY.   PRES  - PRESSURE.
      HI  - HEAT INDEX.          WCI   - WIND CHILL INDEX.

*  THESE STATIONS ARE NOT NWS OR FAA STATIONS AND ARE NOT UNDER
   NWS QUALITY CONTROL.

LAZ038-040-048-061>063-065>067-069-190300-
SOUTHEAST LOUISIANA

CITY           SKY/WX    TMP DP  RH WIND       PRES   REMARKS
N.O. AUDUBON     N/A     73  72  99 MISG        N/A
N.O. INTL ARPT LGT RAIN  72  69  90 SE14      29.84F
N.O. LAKEFRONT CLOUDY    73  68  84 S13       29.87S
SLIDELL        LGT RAIN  72  71  97 S12       29.86F
BATON ROUGE    CLOUDY    73  69  87 S10       29.82S
BOOTHVILLE     LGT RAIN  72  70  93 SE10      29.90R
BELLE CHASSE   LGT RAIN  72  69  90 S13       29.86F
BOGALUSA*      DRIZZLE   73  69  87 S9        29.87S
GALLIANO*      DRIZZLE   69  67  96 SE6       29.88F
NEW ROADS*     MOCLDY    72  69  90 SE6       29.81F
GONZALES*      MOCLDY    72  72 100 SE9G16    29.80F
HAMMOND*       DRIZZLE   72  70  94 S14       29.84F
HOUMA*         LGT RAIN  72  71  97 SE14      29.84F
PORT FOURCHON* CLOUDY    73  70  88 SE13G18   29.92S

$$

MSZ070-080>082-190300-
SOUTHERN MISSISSIPPI

CITY           SKY/WX    TMP DP  RH WIND       PRES   REMARKS
MCCOMB         CLOUDY    72  69  90 S9        29.83S
GULFPORT       LGT RAIN  72  68  87 S9        29.89R
BILOXI         LGT RAIN  73  72  97 SW20G26   29.89R
PASCAGOULA     LGT RAIN  72  70  93 VRB6      29.89R
STENNIS ARPT*  LGT RAIN  72  66  83 MISG      29.87S

$$

COASTAL OBSERVATIONS
LAKE AND NEARSHORE STATIONS

STATION/POSITION TIME  TEMP    WIND        PRES    WAVE
                       AIR SEA DIR/SP/G            HT/PER
                 (UTC) (F)     (DEG/KT/KT) (MB)    (FT/S)
PASCAGOULA       0100   74     190/ 12/ 16 1011.6
WAVELAND YACHT   0100   73 74  190/ 11/ 23 1011.4
GRAND ISLE       0100   72 75  160/  9/ 16 1011.6
SOUTHWEST PASS   0100   71 63  150/  9/ 14 1012.4
NEW CANAL        0112   72     150/  7/ 14 1011.6
SHELL BEACH      0100   71 76  180/ 12/ 17 1011.3

OFFSHORE STATIONS

STATION/POSITION TIME  TEMP    WIND        PRES    WAVE
                       AIR SEA DIR/SP/G            HT/PER
                 (UTC) (F)     (DEG/KT/KT) (MB)    (FT/S)
64 S DAUPHIN ISL 0150   74 74  200/ 14/ 16 1013.4    2/ 6

$$




USA.gov is the U.S. government's official web portal to all federal, state and local government web resources and services.